This is the latest recevied weather packets stored in our database for station/object N8QQQ. If no packets are shown the sender has not sent any weather packets the latest 10 day(s).
| Time | Temp. | Humidity | Pressure | Rain* | Wind** | Luminosity | Snow |
|---|---|---|---|---|---|---|---|
| 1778038809 | -3.33° C | 85% | 1009.5 hPa | 0 mm | - | 0 W/m² | - |
| 1778038507 | -3.33° C | 85% | 1009.8 hPa | 0 mm | - | 0 W/m² | - |
| 1778038204 | -3.33° C | 84% | 1009.9 hPa | 0 mm | - | 0 W/m² | - |
| 1778037901 | -3.33° C | 83% | 1009.8 hPa | 0 mm | - | 0 W/m² | - |
| 1778037597 | -3.33° C | 83% | 1009.9 hPa | 0 mm | - | 0 W/m² | - |
| 1778037295 | -2.78° C | 83% | 1009.8 hPa | 0 mm | - | 0 W/m² | - |
| 1778036992 | -2.78° C | 80% | 1010 hPa | 0 mm | - | 0 W/m² | - |
| 1778036690 | -2.78° C | 80% | 1010 hPa | 0 mm | - | 0 W/m² | - |
| 1778036387 | -2.78° C | 79% | 1010.2 hPa | 0 mm | - | 0 W/m² | - |
| 1778036084 | -2.22° C | 79% | 1010.1 hPa | 0 mm | - | 0 W/m² | - |
| 1778035780 | -2.22° C | 77% | 1009.9 hPa | 0 mm | - | 0 W/m² | - |
| 1778035477 | -1.67° C | 74% | 1009.9 hPa | 0 mm | - | 0 W/m² | - |
| 1778035173 | -1.11° C | 70% | 1010 hPa | 0 mm | - | 0 W/m² | - |
| 1778034870 | -0.56° C | 69% | 1010 hPa | 0 mm | - | 0 W/m² | - |
| 1778034567 | -0.56° C | 64% | 1009.9 hPa | 0 mm | - | 0 W/m² | - |
| 1778034264 | 0° C | 61% | 1009.9 hPa | 0 mm | - | 0 W/m² | - |
| 1778033962 | 0.56° C | 60% | 1009.8 hPa | 0 mm | - | 0 W/m² | - |
| 1778033659 | 0.56° C | 60% | 1009.7 hPa | 0 mm | - | 0 W/m² | - |
| 1778033356 | 0.56° C | 59% | 1009.9 hPa | 0 mm | - | 0 W/m² | - |
| 1778033054 | 0.56° C | 59% | 1009.9 hPa | 0 mm | - | 0 W/m² | - |
| 1778032751 | 1.11° C | 59% | 1009.9 hPa | 0 mm | - | 0 W/m² | - |
| 1778032448 | 1.11° C | 59% | 1009.8 hPa | 0 mm | - | 0 W/m² | - |
| 1778032145 | 1.11° C | 57% | 1009.4 hPa | 0 mm | - | 0 W/m² | - |
| 1778031842 | 1.67° C | 56% | 1009.7 hPa | 0 mm | - | 0 W/m² | - |
| 1778031539 | 1.67° C | 56% | 1009.4 hPa | 0 mm | - | 0 W/m² | - |
* Rain latest hour (hover to see other rain measurements)
** Current wind speed in m/s (hover to see current wind gust speed)